Temp
0 1 1 0 -0 0 -0 -0 -0 -1 -1 -1 -2 -2 -2 -3 -3 -3 -3 -3 -4 -4 -4 -4 -4 -4 -4
0 1 1 1 0 1 1 0 0 -1 -1 -1 -1 -1 -1 -1 -2 -3 -3 -3 -3 -4 -4 -4 -4 -4 -4
1 1 1 1 1 1 0 0 0 -0 -0 -1 -1 -1 -1 -2 -2 -2 -3 -3 -3 -3 -3 -3 -4 -4 -4
0 0 0 0 0 0 -0 -0 -0 -0 -0 -1 -1 -1 -1 -2 -2 -2 -2 -2 -2 -2 -3 -3 -3 -4 -4
-0 -0 -0 -0 -0 -0 -1 -0 -0 -1 -1 -1 -1 -1 -1 -1 -1 -2 -2 -2 -2 -3 -3 -4 -5 -5 -5
-1 -1 -1 -1 -1 -1 -1 -1 -1 -1 -1 -1 -1 -1 -1 -1 -1 -1 -1 -2 -3 -4 -4 -5 -5 -6 -7
-1 -1 -1 -1 -1 -1 -1 -1 -1 -1 -1 -1 -1 -2 -2 -2 -2 -2 -3 -3 -3 -4 -6 -7 -7 -7 -7
-1 -2 -2 -2 -2 -2 -2 -2 -2 -2 -2 -2 -2 -2 -3 -3 -3 -4 -5 -5 -6 -6 -7 -7 -8 -8 -8
-2 -2 -2 -2 -2 -2 -2 -2 -2 -2 -3 -3 -3 -4 -4 -5 -5 -6 -6 -7 -7 -7 -8 -8 -8 -8 -8
-2 -3 -3 -3 -3 -3 -3 -3 -3 -3 -3 -4 -4 -4 -5 -6 -7 -7 -8 -8 -8 -8 -8 -8 -9 -9 -9
-3 -3 -3 -3 -3 -3 -3 -3 -4 -4 -4 -4 -5 -5 -6 -7 -7 -8 -8 -8 -8 -9 -9 -9 -9 -9 -9
-4 -4 -4 -4 -4 -4 -4 -4 -4 -4 -5 -5 -6 -7 -7 -8 -9 -9 -9 -9 -9 -9 -9 -9 -9 -9 -9
-4 -4 -4 -4 -4 -5 -5 -5 -5 -5 -6 -6 -6 -7 -8 -9 -9 -9 -9 -10 -10 -10 -9 -9 -9 -9 -9
-5 -5 -5 -5 -5 -5 -5 -6 -6 -6 -6 -7 -7 -8 -9 -9 -9 -10 -10 -10 -10 -10 -11 -11 -10 -10 -10
-5 -5 -5 -5 -6 -6 -6 -6 -7 -7 -7 -7 -8 -8 -9 -10 -10 -10 -10 -10 -11 -11 -11 -11 -11 -11 -11
-6 -6 -6 -6 -6 -6 -7 -7 -7 -8 -8 -8 -8 -9 -9 -10 -11 -11 -11 -11 -12 -12 -12 -11 -12 -12 -12
-7 -7 -7 -7 -7 -7 -7 -8 -8 -9 -9 -9 -9 -10 -10 -10 -11 -11 -12 -12 -12 -12 -13 -12 -12 -13 -13
Height
3084 3082 3081 3079 3077 3075 3074 3072 3070 3070 3069 3067 3066 3064 3064 3063 3062 3061 3061 3059 3059 3059 3060 3061 3061 3061 3062
3079 3078 3078 3075 3073 3072 3070 3068 3067 3066 3064 3063 3061 3060 3059 3058 3056 3055 3054 3054 3054 3054 3054 3054 3054 3054 3055
3076 3075 3074 3071 3070 3068 3066 3065 3063 3061 3060 3058 3057 3056 3054 3053 3052 3051 3049 3049 3049 3048 3048 3048 3047 3047 3047
3073 3072 3070 3068 3067 3065 3063 3060 3058 3056 3055 3053 3052 3051 3049 3048 3047 3047 3045 3044 3043 3042 3040 3040 3040 3039 3040
3070 3068 3065 3064 3062 3060 3057 3055 3053 3051 3050 3048 3047 3045 3043 3042 3040 3039 3038 3036 3035 3034 3034 3033 3032 3032 3031
3065 3063 3061 3059 3056 3054 3052 3050 3048 3046 3044 3043 3040 3038 3037 3035 3034 3032 3031 3029 3028 3027 3025 3025 3025 3025 3025
3060 3058 3055 3054 3051 3049 3046 3044 3043 3041 3039 3037 3035 3033 3031 3030 3028 3026 3025 3023 3022 3020 3020 3019 3020 3020 3021
3055 3053 3051 3049 3047 3044 3041 3039 3037 3035 3033 3031 3029 3028 3026 3024 3022 3021 3019 3018 3017 3016 3016 3016 3016 3016 3017
3050 3048 3046 3044 3042 3039 3036 3034 3032 3030 3027 3025 3023 3021 3020 3018 3016 3015 3014 3014 3013 3012 3012 3011 3010 3011 3011
3044 3043 3041 3039 3036 3034 3031 3029 3027 3025 3022 3021 3018 3016 3014 3013 3011 3010 3008 3008 3007 3006 3006 3005 3005 3004 3005
3039 3037 3035 3033 3031 3028 3025 3023 3021 3018 3017 3014 3012 3009 3007 3006 3005 3003 3003 3001 3000 3000 2999 2999 2998 2997 2997
3034 3032 3030 3027 3025 3022 3020 3018 3015 3012 3010 3008 3006 3003 3001 3000 2999 2997 2995 2994 2993 2993 2992 2992 2991 2991 2990
3029 3027 3024 3021 3019 3016 3014 3011 3009 3005 3003 3000 2998 2996 2994 2993 2992 2991 2988 2986 2983 2984 2984 2983 2983 2983 2983
3023 3020 3017 3015 3012 3010 3008 3005 3002 2999 2996 2994 2992 2989 2987 2985 2984 2983 2981 2980 2977 2975 2974 2974 2974 2973 2973
3016 3013 3010 3008 3005 3002 3000 2998 2995 2992 2989 2985 2983 2982 2980 2978 2977 2975 2973 2971 2968 2967 2965 2965 2964 2963 2962
3009 3006 3003 3000 2998 2995 2992 2990 2988 2985 2982 2978 2974 2971 2970 2971 2969 2968 2965 2962 2958 2956 2954 2953 2955 2953 2951
3001 2998 2995 2993 2990 2987 2984 2982 2979 2977 2974 2971 2967 2964 2962 2961 2961 2960 2955 2951 2948 2946 2943 2942 2942 2945 2941
Wind_Speed
14 13 14 12 13 13 15 16 16 17 18 18 20 20 20 20 23 25 23 21 19 20 21 22 22 21 22
13 11 12 11 11 12 13 11 11 12 13 15 17 20 22 25 25 25 22 23 23 23 23 23 20 20 20
9 11 12 12 14 15 16 16 16 16 18 19 18 18 19 21 21 21 22 24 24 24 23 23 23 23 23
13 14 14 15 17 17 18 19 20 20 20 20 21 22 23 24 25 25 26 27 28 27 27 28 28 27 28
15 16 17 18 19 19 19 20 20 22 23 24 24 24 23 23 23 24 25 26 26 27 27 27 25 25 26
18 18 18 19 19 20 20 20 21 23 23 23 24 23 23 23 23 23 25 25 23 22 21 20 18 17 16
17 17 18 18 18 18 18 18 19 20 21 21 21 21 22 22 23 23 24 23 22 19 15 13 14 15 16
17 17 18 18 18 18 18 18 19 19 20 20 20 21 22 22 22 21 20 19 18 17 16 16 17 17 18
16 16 17 17 17 17 18 18 19 19 20 21 22 21 21 21 21 20 19 19 19 19 19 19 19 20 21
16 16 16 17 17 18 19 19 20 20 21 21 22 22 22 21 21 21 21 21 21 22 21 21 21 22 22
17 17 17 18 18 19 20 21 22 23 21 22 23 23 23 22 21 22 22 23 24 24 23 24 24 25 24
18 18 18 19 20 21 21 22 23 24 25 24 23 24 23 23 22 24 26 26 26 25 25 25 26 26 25
19 20 21 21 21 22 22 23 24 26 26 26 25 25 24 23 23 24 27 28 30 28 27 27 26 26 26
21 23 24 23 23 22 23 23 24 26 27 27 26 26 26 25 24 24 28 28 30 32 31 29 29 30 30
24 26 26 25 24 24 24 24 25 26 28 29 28 27 27 27 25 26 28 29 32 33 33 32 30 30 32
27 28 27 26 25 25 26 26 26 27 27 29 30 31 31 28 27 27 28 30 33 35 35 35 30 30 32
28 29 27 25 25 26 27 28 28 27 27 28 30 32 32 31 28 25 29 31 35 35 37 38 36 30 33
Wind_Direction
297 305 306 297 294 298 300 295 291 282 290 290 282 272 256 261 269 271 275 279 273 261 256 253 256 263 263
299 306 312 317 314 308 311 312 307 292 293 300 289 276 269 273 277 278 271 269 274 270 267 268 268 269 266
299 301 307 312 308 306 306 302 298 296 291 288 284 280 278 278 280 280 278 276 273 269 269 270 270 271 271
300 302 305 303 299 299 297 297 298 298 296 291 286 282 279 278 277 275 272 271 270 272 272 272 271 271 270
299 298 298 296 295 294 293 293 295 295 294 293 292 290 287 283 282 280 278 277 277 277 275 274 272 268 265
297 297 297 296 295 295 296 296 296 294 293 291 289 287 286 286 287 288 288 288 285 280 276 273 267 259 255
297 299 300 298 298 297 299 300 298 296 294 294 292 290 289 288 286 286 284 282 280 279 273 266 261 259 257
303 305 303 302 302 303 303 304 304 304 303 301 298 294 292 289 288 285 280 276 272 267 262 259 259 260 261
303 303 302 302 303 305 307 310 310 308 307 305 303 299 295 292 288 283 277 273 268 266 265 264 265 265 266
301 301 302 303 305 307 309 310 309 308 307 304 301 298 294 289 283 278 275 271 268 267 266 265 265 263 262
301 301 301 303 305 307 308 308 307 305 304 303 301 297 294 290 284 278 274 272 269 267 266 266 267 266 266
303 302 303 304 305 305 303 303 303 302 303 302 299 296 293 288 283 281 281 276 272 269 267 266 266 266 267
302 304 304 304 303 301 301 301 301 300 300 300 298 296 292 286 280 277 276 277 281 278 272 270 270 268 266
302 304 304 302 300 299 299 299 299 298 298 296 296 294 292 290 287 280 277 277 277 278 278 277 274 274 272
301 304 303 300 298 297 297 298 298 297 297 298 298 295 294 292 289 285 282 281 279 278 279 279 278 275 272
300 303 301 298 296 297 298 299 299 298 298 297 297 297 296 294 294 290 286 282 279 279 279 278 276 276 273
300 302 299 296 297 297 296 297 298 297 297 296 295 295 296 297 297 294 289 284 281 281 281 281 281 276 272